Weather History for Naples, FL

Change the Weather History Date:

Monday, December 10, 2012

  Actual Average Record
Temperature  
Mean Temperature 77 °F 68 °F  
Max Temperature 84 °F 77 °F 88 °F (1986)
Min Temperature 69 °F 58 °F 39 °F (1974)
Degree Days  
Heating Degree Days 0 2  
Month to date heating degree days 0 15  
Since 1 July heating degree days 13 29  
Cooling Degree Days 12 5  
Month to date cooling degree days 72 50  
Year to date cooling degree days 4038 3869  
Growing Degree Days 26 (Base 50)    
Moisture  
Dew Point 72 °F    
Average Humidity 87    
Maximum Humidity 100    
Minimum Humidity 74    
Precipitation  
Precipitation 0.31 in 0.04 in 0.82 in (1977)
Month to date precipitation 0.42 0.46  
Year to date precipitation 36.57 50.90  
Snow  
Snow 0.00 in - - ()
Month to date snowfall 0.0  
Since 1 July snowfall 0.0  
Snow Depth 0.00 in    
Sea Level Pressure  
Sea Level Pressure 29.97 in    
Wind  
Wind Speed 8 mph (SE)    
Max Wind Speed 20 mph    
Max Gust Speed 25 mph    
Visibility 7 miles    
Events Fog , Rain , Thunderstorm    
T = Trace of Precipitation, MM = Missing Value Source: NWS Daily Summary

Daily Weather History Graph

Daily Weather History Graph

Search for Another Location

Airport:

Trip Planner

Search our weather history database for the weather conditions in past years. The results will help you decide how hot, cold, wet, or windy it might be!

Date:

Astronomy

Dec. 10, 2012 Rise Set
Actual Time 7:04 AM EST 5:36 PM EST
Civil Twilight 6:38 AM EST 6:01 PM EST
Nautical Twilight 6:10 AM EST 6:30 PM EST
Astronomical Twilight 5:41 AM EST 6:58 PM EST
Moon 3:56 AM EST (12/10) 3:15 PM EST (12/10)
Length of Visible Light 11h 22m
Length of Day
10h 32m
Waning Crescent, 10% of the Moon is Illuminated
Dec 10
Waning Crescent
Dec 13
New
Dec 20
First Quarter
Dec 28
Full
Jan 4
Last Quarter

Hourly Weather History & Observations

Time (EST) Temp. Heat Index Dew Point Humidity Pressure Visibility Wind Dir Wind Speed Gust Speed Precip Events Conditions
12:19 AM 69.8 °F - 69.8 °F 100% 30.02 in 9.0 mi Calm Calm - N/A   Mostly Cloudy
12:53 AM 71.1 °F - 70.0 °F 96% 30.02 in 10.0 mi Calm Calm - N/A   Overcast
1:53 AM 71.1 °F - 69.1 °F 93% 30.00 in 10.0 mi NE 3.5 mph - N/A   Mostly Cloudy
2:53 AM 71.1 °F - 69.1 °F 93% 29.99 in 10.0 mi East 3.5 mph - N/A   Overcast
3:32 AM 69.8 °F - 68.0 °F 94% 29.98 in 10.0 mi Calm Calm - N/A   Partly Cloudy
3:53 AM 70.0 °F - 69.1 °F 97% 29.97 in 10.0 mi Calm Calm - N/A   Scattered Clouds
4:53 AM 69.1 °F - 68.0 °F 96% 29.96 in 10.0 mi Calm Calm - N/A   Scattered Clouds
5:15 AM 69.8 °F - 69.8 °F 100% 29.97 in 9.0 mi Calm Calm - N/A   Mostly Cloudy
5:53 AM 70.0 °F - 69.1 °F 97% 29.96 in 9.0 mi Calm Calm - N/A   Overcast
6:15 AM 69.8 °F - 69.8 °F 100% 29.97 in 9.0 mi East 3.5 mph - N/A   Mostly Cloudy
6:34 AM 69.8 °F - 69.8 °F 100% 29.98 in 1.8 mi ESE 3.5 mph - N/A   Overcast
6:42 AM 69.8 °F - 69.8 °F 100% 29.98 in 0.5 mi ESE 4.6 mph - N/A Fog Fog
6:53 AM 70.0 °F - 70.0 °F 100% 29.98 in 0.2 mi SE 3.5 mph - N/A Fog Fog
7:53 AM 72.0 °F - 72.0 °F 100% 30.00 in 0.2 mi ESE 4.6 mph - N/A Fog Fog
8:07 AM 71.6 °F - 71.6 °F 100% 30.00 in 0.5 mi ESE 3.5 mph - N/A Fog Fog
8:14 AM 71.6 °F - 71.6 °F 100% 30.00 in 0.8 mi ESE 5.8 mph - N/A   Mist
8:22 AM 71.6 °F - 71.6 °F 100% 30.00 in 1.0 mi ESE 4.6 mph - N/A   Overcast
8:44 AM 73.4 °F - 73.4 °F 100% 30.00 in 3.0 mi SE 6.9 mph - N/A   Overcast
8:53 AM 73.9 °F - 73.9 °F 100% 29.99 in 5.0 mi SE 5.8 mph - N/A   Overcast
9:37 AM 77.0 °F - 75.2 °F 94% 30.00 in 8.0 mi SE 9.2 mph - N/A   Mostly Cloudy
9:53 AM 80.1 °F 85.4 °F 75.9 °F 87% 30.00 in 9.0 mi SE 10.4 mph - N/A   Mostly Cloudy
10:53 AM 82.9 °F 89.4 °F 73.9 °F 74% 29.98 in 10.0 mi SSE 11.5 mph - N/A   Scattered Clouds
11:53 AM 81.0 °F 86.7 °F 75.0 °F 82% 29.97 in 10.0 mi South 15.0 mph 21.9 mph N/A   Mostly Cloudy
12:53 PM 82.0 °F 88.6 °F 75.0 °F 79% 29.94 in 10.0 mi SSE 15.0 mph 21.9 mph N/A   Scattered Clouds
1:00 PM 82.4 °F 89.5 °F 75.2 °F 79% 29.94 in 10.0 mi SSE 16.1 mph 23.0 mph N/A   Mostly Cloudy
1:19 PM 82.4 °F 89.5 °F 75.2 °F 79% 29.93 in 10.0 mi SSE 16.1 mph 23.0 mph N/A   Scattered Clouds
1:53 PM 82.9 °F 89.4 °F 73.9 °F 74% 29.92 in 10.0 mi South 15.0 mph 24.2 mph N/A   Scattered Clouds
2:53 PM 81.0 °F 86.2 °F 73.9 °F 79% 29.90 in 10.0 mi South 15.0 mph 23.0 mph N/A   Partly Cloudy
3:53 PM 80.1 °F 85.1 °F 75.0 °F 85% 29.90 in 9.0 mi SSE 10.4 mph 19.6 mph N/A   Scattered Clouds
4:53 PM 79.0 °F - 75.0 °F 88% 29.91 in 9.0 mi South 12.7 mph - N/A   Partly Cloudy
5:53 PM 78.1 °F - 75.0 °F 90% 29.90 in 9.0 mi SSE 11.5 mph - N/A   Mostly Cloudy
6:53 PM 77.0 °F - 75.0 °F 94% 29.92 in 10.0 mi South 9.2 mph - N/A   Clear
7:53 PM 78.1 °F - 73.9 °F 87% 29.94 in 5.0 mi SSE 8.1 mph - 0.02 in Rain Rain
8:53 PM 77.0 °F - 75.0 °F 94% 29.95 in 9.0 mi SSE 9.2 mph - 0.02 in   Overcast
9:53 PM 75.0 °F - 75.0 °F 100% 29.95 in 8.0 mi SE 9.2 mph - 0.00 in Rain Light Rain
10:48 PM 75.2 °F - 73.4 °F 94% 29.96 in 2.5 mi South 4.6 mph - 0.07 in Rain , Thunderstorm Heavy Thunderstorms and Rain
10:53 PM 75.0 °F - 73.9 °F 96% 29.95 in 2.5 mi SSE 10.4 mph - 0.09 in Rain , Thunderstorm Heavy Thunderstorms and Rain
11:03 PM 73.4 °F - 71.6 °F 94% 29.96 in 5.0 mi SE 9.2 mph - 0.01 in Rain , Thunderstorm Thunderstorms and Rain
11:57 PM 73.4 °F - 71.6 °F 94% 29.98 in 3.0 mi SSW 15.0 mph 23.0 mph 0.03 in Rain , Thunderstorm Heavy Rain